Madison, MN

6:15 AM CDT on September 16, 2019 (GMT -0500)
Madison-Lac Qui Parle County

Weather History for KDXX - July, 2019

Change the Weather History Date:

Tuesday, July 30, 2019

  Actual Average (WUND) Record (WUND)
Temperature  
Mean Temperature 65 °F -  
Max Temperature 77 °F - - (-1)
Min Temperature 53 °F - - (-1)
Growing Degree Days 15 (Base 50)    
Moisture  
Dew Point 56 °F    
Average Humidity 74    
Maximum Humidity 100    
Minimum Humidity 44    
Precipitation  
Precipitation 0.00 in - - ()
Sea Level Pressure  
Sea Level Pressure 30.12 in    
Wind  
Wind Speed 3 mph (SE)    
Max Wind Speed 9 mph    
Max Gust Speed -    
Visibility 10 miles    
Events      
Averages and records for this station are not official NWS values.
T = Trace of Precipitation, MM = Missing Value Source: NWS Daily Summary

Daily Weather History Graph

Daily Weather History Graph

Search for Another Location

Airport or City:

Astronomy

Jul. 30, 2019 Rise Set
Actual Time 6:07 AM CDT 8:53 PM CDT
Civil Twilight 5:33 AM CDT 9:27 PM CDT
Nautical Twilight 4:50 AM CDT 10:10 PM CDT
Astronomical Twilight 4:00 AM CDT 11:00 PM CDT
Moon 4:13 AM CDT (7/30) 8:03 PM CDT (7/30)
Length of Visible Light 15h 54m
Length of Day
14h 46m
Waning Crescent, 3% of the Moon is Illuminated
Jul 30
Waning Crescent
Jul 31
New
Aug 7
First Quarter
Aug 15
Full
Aug 23
Last Quarter

Hourly Weather History & Observations

Time (CDT) Temp. Dew Point Humidity Pressure Visibility Wind Dir Wind Speed Gust Speed Precip Events Conditions
12:15 AM 60.8 °F 57.2 °F 88% 30.10 in 10.0 mi Calm Calm - N/A   Clear
12:16 AM 60.8 °F 57.2 °F 88% 30.10 in 10.0 mi Calm Calm - N/A   Clear
12:35 AM 57.2 °F 55.4 °F 94% 30.10 in 10.0 mi WNW 3.5 mph - N/A   Clear
12:40 AM 57.2 °F 55.4 °F 94% 30.11 in 10.0 mi WNW 3.5 mph - N/A   Clear
12:57 AM 57.2 °F 55.4 °F 94% 30.11 in 10.0 mi WNW 3.5 mph - N/A   Clear
1:15 AM 57.2 °F 55.4 °F 94% 30.11 in 10.0 mi WNW 3.5 mph - N/A   Clear
1:35 AM 55.4 °F 55.4 °F 100% 30.11 in 10.0 mi West 4.6 mph - N/A   Clear
1:55 AM 57.2 °F 55.4 °F 94% 30.11 in 10.0 mi Calm Calm - N/A   Clear
1:56 AM 57.2 °F 55.4 °F 94% 30.11 in 10.0 mi Calm Calm - N/A   Clear
2:18 AM 55.4 °F 55.4 °F 100% 30.11 in 10.0 mi Calm Calm - N/A   Clear
2:37 AM 55.4 °F 53.6 °F 94% 30.11 in 10.0 mi Calm Calm - N/A   Clear
2:56 AM 55.4 °F 55.4 °F 100% 30.11 in 10.0 mi Calm Calm - N/A   Clear
3:15 AM 55.4 °F 53.6 °F 94% 30.12 in 10.0 mi West 4.6 mph - N/A   Clear
3:35 AM 55.4 °F 53.6 °F 94% 30.12 in 10.0 mi Calm Calm - N/A   Clear
3:39 AM 53.6 °F 53.6 °F 100% 30.12 in 10.0 mi Calm Calm - N/A   Clear
3:57 AM 55.4 °F 53.6 °F 94% 30.12 in 7.0 mi West 4.6 mph - N/A   Clear
4:16 AM 53.6 °F 53.6 °F 100% 30.13 in 7.0 mi West 4.6 mph - N/A   Clear
4:35 AM 55.4 °F 53.6 °F 94% 30.13 in 10.0 mi WNW 3.5 mph - N/A   Clear
4:36 AM 53.6 °F 53.6 °F 100% 30.13 in 10.0 mi West 3.5 mph - N/A   Clear
4:55 AM 53.6 °F 53.6 °F 100% 30.13 in 10.0 mi Calm Calm - N/A   Clear
4:56 AM 53.6 °F 53.6 °F 100% 30.13 in 10.0 mi Calm Calm - N/A   Clear
5:18 AM 53.6 °F 53.6 °F 100% 30.13 in 10.0 mi WNW 3.5 mph - N/A   Clear
5:36 AM 53.6 °F 51.8 °F 94% 30.14 in 10.0 mi West 3.5 mph - N/A   Clear
5:55 AM 53.6 °F 51.8 °F 94% 30.14 in 10.0 mi West 3.5 mph - N/A   Clear
6:15 AM 53.6 °F 51.8 °F 94% 30.14 in 7.0 mi West 3.5 mph - N/A   Clear
6:16 AM 53.6 °F 51.8 °F 94% 30.14 in 7.0 mi West 3.5 mph - N/A   Clear
6:35 AM 53.6 °F 51.8 °F 94% 30.15 in 7.0 mi West 4.6 mph - N/A   Clear
6:39 AM 53.6 °F 51.8 °F 94% 30.16 in 7.0 mi West 4.6 mph - N/A   Clear
6:58 AM 55.4 °F 53.6 °F 94% 30.17 in 10.0 mi Calm Calm - N/A   Clear
7:15 AM 55.4 °F 55.4 °F 100% 30.16 in 10.0 mi Calm Calm - N/A   Clear
7:35 AM 57.2 °F 55.4 °F 94% 30.16 in 10.0 mi Calm Calm - N/A   Clear
7:36 AM 57.2 °F 55.4 °F 94% 30.16 in 10.0 mi Calm Calm - N/A   Clear
7:55 AM 60.8 °F 57.2 °F 88% 30.16 in 10.0 mi Calm Calm - N/A   Clear
8:18 AM 60.8 °F 59.0 °F 94% 30.17 in 10.0 mi Calm Calm - N/A   Clear
8:37 AM 62.6 °F 59.0 °F 88% 30.16 in 10.0 mi Calm Calm - N/A   Clear
8:56 AM 64.4 °F 57.2 °F 77% 30.16 in 10.0 mi Calm Calm - N/A   Clear
9:15 AM 66.2 °F 57.2 °F 73% 30.16 in 10.0 mi Calm Calm - N/A   Clear
9:16 AM 66.2 °F 57.2 °F 73% 30.16 in 10.0 mi Calm Calm - N/A   Clear
9:35 AM 66.2 °F 57.2 °F 73% 30.16 in 10.0 mi Calm Calm - N/A   Clear
9:57 AM 66.2 °F 57.2 °F 73% 30.16 in 10.0 mi ESE 3.5 mph - N/A   Clear
10:16 AM 68.0 °F 57.2 °F 68% 30.15 in 10.0 mi SE 4.6 mph - N/A   Clear
10:35 AM 69.8 °F 57.2 °F 64% 30.16 in 10.0 mi ESE 6.9 mph - N/A   Clear
10:36 AM 69.8 °F 57.2 °F 64% 30.16 in 10.0 mi ESE 5.8 mph - N/A   Clear
10:55 AM 69.8 °F 55.4 °F 60% 30.16 in 10.0 mi SSE 4.6 mph - N/A   Scattered Clouds
10:56 AM 69.8 °F 55.4 °F 60% 30.16 in 10.0 mi SSE 4.6 mph - N/A   Scattered Clouds
11:19 AM 71.6 °F 55.4 °F 57% 30.16 in 10.0 mi SE 3.5 mph - N/A   Clear
11:36 AM 71.6 °F 55.4 °F 57% 30.15 in 10.0 mi SSE 3.5 mph - N/A   Clear
11:55 AM 71.6 °F 55.4 °F 57% 30.15 in 10.0 mi SE 6.9 mph - N/A   Clear
11:56 AM 71.6 °F 55.4 °F 57% 30.15 in 10.0 mi ESE 9.2 mph - N/A   Clear
12:15 PM 71.6 °F 57.2 °F 60% 30.14 in 10.0 mi SE 6.9 mph - N/A   Clear
12:38 PM 71.6 °F 55.4 °F 57% 30.14 in 10.0 mi ESE 8.1 mph - N/A   Clear
12:57 PM 73.4 °F 55.4 °F 53% 30.15 in 10.0 mi SE 3.5 mph - N/A   Clear
1:16 PM 73.4 °F 55.4 °F 53% 30.14 in 10.0 mi SE 4.6 mph - N/A   Clear
1:35 PM 73.4 °F 55.4 °F 53% 30.14 in 10.0 mi South 5.8 mph - N/A   Clear
1:36 PM 73.4 °F 55.4 °F 53% 30.14 in 10.0 mi South 5.8 mph - N/A   Clear
1:55 PM 73.4 °F 55.4 °F 53% 30.13 in 10.0 mi SSE 8.1 mph - N/A   Clear
2:18 PM 75.2 °F 55.4 °F 50% 30.12 in 10.0 mi SE 8.1 mph - N/A   Clear
2:35 PM 75.2 °F 55.4 °F 50% 30.12 in 10.0 mi SE 8.1 mph - N/A   Clear
2:55 PM 75.2 °F 55.4 °F 50% 30.11 in 10.0 mi SE 5.8 mph - N/A   Clear
2:56 PM 75.2 °F 55.4 °F 50% 30.11 in 10.0 mi SSE 4.6 mph - N/A   Clear
3:15 PM 75.2 °F 55.4 °F 50% 30.11 in 10.0 mi South 6.9 mph - N/A   Clear
3:16 PM 75.2 °F 55.4 °F 50% 30.11 in 10.0 mi South 5.8 mph - N/A   Clear
3:39 PM 77.0 °F 53.6 °F 44% 30.10 in 10.0 mi SSE 6.9 mph - N/A   Clear
3:57 PM 77.0 °F 55.4 °F 47% 30.10 in 10.0 mi SSE 8.1 mph - N/A   Clear
4:16 PM 77.0 °F 53.6 °F 44% 30.09 in 10.0 mi South 6.9 mph - N/A   Clear
4:35 PM 77.0 °F 55.4 °F 47% 30.09 in 10.0 mi SE 5.8 mph - N/A   Clear
4:36 PM 77.0 °F 55.4 °F 47% 30.09 in 10.0 mi SSE 4.6 mph - N/A   Clear
4:55 PM 77.0 °F 53.6 °F 44% 30.09 in 10.0 mi SSE 4.6 mph - N/A   Clear
5:16 PM 77.0 °F 57.2 °F 50% 30.09 in 10.0 mi ESE 6.9 mph - N/A   Clear
5:35 PM 77.0 °F 57.2 °F 50% 30.08 in 10.0 mi ESE 6.9 mph - N/A   Clear
5:55 PM 77.0 °F 57.2 °F 50% 30.09 in 10.0 mi SSE 4.6 mph - N/A   Clear
5:56 PM 77.0 °F 57.2 °F 50% 30.08 in 10.0 mi SE 4.6 mph - N/A   Clear
6:15 PM 77.0 °F 55.4 °F 47% 30.08 in 10.0 mi SE 9.2 mph - N/A   Clear
6:20 PM 77.0 °F 55.4 °F 47% 30.08 in 10.0 mi SE 4.6 mph - N/A   Clear
6:37 PM 77.0 °F 57.2 °F 50% 30.08 in 10.0 mi ESE 6.9 mph - N/A   Clear
6:55 PM 75.2 °F 57.2 °F 53% 30.08 in 10.0 mi SE 8.1 mph - N/A   Clear
7:16 PM 75.2 °F 57.2 °F 53% 30.08 in 10.0 mi ESE 5.8 mph - N/A   Clear
7:35 PM 73.4 °F 59.0 °F 61% 30.08 in 10.0 mi ESE 4.6 mph - N/A   Clear
7:36 PM 73.4 °F 59.0 °F 61% 30.08 in 10.0 mi East 4.6 mph - N/A   Clear
7:58 PM 71.6 °F 60.8 °F 69% 30.08 in 10.0 mi East 4.6 mph - N/A   Scattered Clouds
8:17 PM 69.8 °F 60.8 °F 73% 30.09 in 10.0 mi East 5.8 mph - N/A   Clear
8:36 PM 68.0 °F 60.8 °F 78% 30.09 in 10.0 mi East 5.8 mph - N/A   Clear
8:55 PM 66.2 °F 60.8 °F 83% 30.09 in 10.0 mi East 5.8 mph - N/A   Clear
8:56 PM 66.2 °F 60.8 °F 83% 30.09 in 10.0 mi East 5.8 mph - N/A   Clear
9:15 PM 66.2 °F 60.8 °F 83% 30.10 in 10.0 mi East 4.6 mph - N/A   Scattered Clouds
9:37 PM 66.2 °F 60.8 °F 83% 30.10 in 10.0 mi ESE 5.8 mph - N/A   Scattered Clouds
9:56 PM 66.2 °F 60.8 °F 83% 30.10 in 10.0 mi ESE 6.9 mph - N/A   Clear
10:15 PM 68.0 °F 59.0 °F 73% 30.10 in 10.0 mi SE 5.8 mph - N/A   Clear
10:16 PM 68.0 °F 60.8 °F 78% 30.11 in 10.0 mi ESE 5.8 mph - N/A   Clear
10:35 PM 68.0 °F 60.8 °F 78% 30.11 in 10.0 mi ESE 5.8 mph - N/A   Scattered Clouds
10:40 PM 68.0 °F 60.8 °F 78% 30.11 in 10.0 mi SE 5.8 mph - N/A   Mostly Cloudy
10:57 PM 66.2 °F 59.0 °F 78% 30.10 in 10.0 mi SE 5.8 mph - N/A   Mostly Cloudy
11:15 PM 66.2 °F 59.0 °F 78% 30.11 in 10.0 mi SE 5.8 mph - N/A   Mostly Cloudy
11:35 PM 66.2 °F 59.0 °F 78% 30.11 in 10.0 mi SE 5.8 mph - N/A   Clear
11:55 PM 64.4 °F 59.0 °F 83% 30.12 in 10.0 mi SE 4.6 mph - N/A   Scattered Clouds
11:56 PM 64.4 °F 59.0 °F 83% 30.12 in 10.0 mi SE 4.6 mph - N/A   Scattered Clouds